When you browse on this site, cookies collect data to enhance your experience and personalize the content and advertising you see.
Visit our Privacy Policy to learn more. By continuing to use the site, you agree to this use of cookies and data.
  • In Netherlands
  • List of Countries
  • For 7 days
  • Water Temperature
  • Weather Map
  • Weather Widgets
  • user-avatar
    Login

    Hourly Weather Amuzgi

    Today, 17 February, Monday

    Time Temperature Precipitation Wind Pressure Humidity
    00:00 -7°C° 0 mm 1 mps 642 mmHg 83%
    01:00 -7°C° 0 mm 1 mps 642 mmHg 80%
    02:00 -7°C° 0 mm 1 mps 642 mmHg 76%
    03:00 -7°C° 0 mm 1 mps 642 mmHg 72%
    04:00 -7°C° 0 mm 1 mps 642 mmHg 70%
    05:00 -8°C° 0 mm 1 mps 642 mmHg 68%
    06:00 -8°C° 0 mm 1 mps 642 mmHg 66%
    07:00 -7°C° 0 mm 1 mps 643 mmHg 71%
    08:00 -6°C° 0 mm 1 mps 643 mmHg 75%
    09:00 -4°C° 0 mm 1 mps 644 mmHg 80%
    10:00 -5°C° 0 mm 2 mps 644 mmHg 81%
    11:00 -4°C° 0 mm 2 mps 644 mmHg 82%
    12:00 -4°C° 0 mm 2 mps 644 mmHg 84%
    13:00 -3°C° 0 mm 2 mps 644 mmHg 85%
    14:00 -3°C° 0 mm 2 mps 644 mmHg 87%
    15:00 -3°C° 0 mm 2 mps 643 mmHg 89%
    16:00 -4°C° 0 mm 2 mps 643 mmHg 90%
    17:00 -5°C° 0 mm 2 mps 643 mmHg 92%
    18:00 -6°C° 0 mm 2 mps 643 mmHg 93%
    19:00 -6°C° 0 mm 2 mps 643 mmHg 90%
    20:00 -6°C° 0 mm 2 mps 643 mmHg 86%
    21:00 -6°C° 0 mm 1 mps 643 mmHg 83%
    22:00 -6°C° 0 mm 1 mps 643 mmHg 80%
    23:00 -7°C° 0 mm 2 mps 642 mmHg 77%

    Tomorrow, 18 February, Tuesday

    Time Temperature Precipitation Wind Pressure Humidity
    00:00 -7°C° 0 mm 2 mps 642 mmHg 74%
    01:00 -7°C° 0 mm 2 mps 642 mmHg 70%
    02:00 -4°C° 0 mm 1 mps 642 mmHg 65%
    03:00 -4°C° 0 mm 1 mps 642 mmHg 61%
    04:00 -4°C° 0 mm 1 mps 642 mmHg 60%
    05:00 -5°C° 0 mm 2 mps 642 mmHg 58%
    06:00 -5°C° 0 mm 2 mps 641 mmHg 56%
    07:00 -3°C° 0 mm 2 mps 642 mmHg 60%
    08:00 0°C° 0 mm 1 mps 643 mmHg 64%
    09:00 +2°C° 0 mm 1 mps 643 mmHg 68%
    10:00 +2°C° 0 mm 1 mps 643 mmHg 74%
    11:00 +3°C° 0 mm 1 mps 643 mmHg 80%
    12:00 +3°C° 0 mm 1 mps 642 mmHg 86%
    13:00 +4°C° 0 mm 1 mps 642 mmHg 86%
    14:00 +4°C° 0 mm 1 mps 642 mmHg 85%
    15:00 +4°C° 0 mm 1 mps 641 mmHg 85%
    16:00 +3°C° 0 mm 1 mps 641 mmHg 78%
    17:00 +2°C° 0 mm 2 mps 640 mmHg 71%
    18:00 +1°C° 0 mm 2 mps 640 mmHg 63%
    19:00 +1°C° 0 mm 2 mps 640 mmHg 59%
    20:00 +1°C° 0 mm 2 mps 640 mmHg 54%
    21:00 0°C° 0 mm 3 mps 640 mmHg 49%
    22:00 0°C° 0 mm 3 mps 639 mmHg 47%
    23:00 0°C° 0 mm 3 mps 639 mmHg 44%

    Day after tomorrow, 19 February, Wednesday

    Time Temperature Precipitation Wind Pressure Humidity
    00:00 0°C° 0 mm 3 mps 638 mmHg 42%
    01:00 0°C° 0 mm 3 mps 638 mmHg 41%
    02:00 0°C° 0 mm 3 mps 637 mmHg 40%
    03:00 -1°C° 0 mm 3 mps 637 mmHg 40%
    04:00 -1°C° 0 mm 3 mps 637 mmHg 38%
    05:00 -1°C° 0 mm 2 mps 636 mmHg 37%
    06:00 -1°C° 0 mm 2 mps 636 mmHg 35%
    07:00 +1°C° 0 mm 2 mps 637 mmHg 42%
    08:00 +3°C° 0 mm 1 mps 637 mmHg 49%
    09:00 +4°C° 0 mm 1 mps 638 mmHg 56%
    10:00 +5°C° 0 mm 1 mps 637 mmHg 65%
    11:00 +5°C° 0 mm 1 mps 637 mmHg 74%
    12:00 +6°C° 0 mm 1 mps 637 mmHg 83%
    13:00 +5°C° 0 mm 1 mps 637 mmHg 82%
    14:00 +5°C° 0 mm 1 mps 637 mmHg 81%
    15:00 +5°C° 0 mm 1 mps 636 mmHg 80%
    16:00 +4°C° 0 mm 1 mps 636 mmHg 76%
    17:00 +2°C° 0 mm 1 mps 636 mmHg 71%
    18:00 +1°C° 0 mm 1 mps 635 mmHg 67%
    19:00 +1°C° 0 mm 1 mps 635 mmHg 64%
    20:00 +1°C° 0 mm 1 mps 635 mmHg 61%
    21:00 0°C° 0 mm 1 mps 635 mmHg 57%
    22:00 0°C° 0 mm 1 mps 635 mmHg 56%
    23:00 0°C° 0 mm 1 mps 634 mmHg 55%

    20 February, Thursday

    Time Temperature Precipitation Wind Pressure Humidity
    00:00 0°C° 0 mm 1 mps 634 mmHg 53%
    01:00 0°C° 0 mm 1 mps 634 mmHg 54%
    02:00 0°C° 0 mm 1 mps 634 mmHg 54%
    03:00 0°C° 0 mm 1 mps 633 mmHg 55%
    04:00 -1°C° 0 mm 1 mps 633 mmHg 54%
    05:00 -1°C° 0 mm 1 mps 633 mmHg 53%
    06:00 -1°C° 0 mm 1 mps 633 mmHg 53%
    07:00 0°C° 0 mm 1 mps 633 mmHg 57%
    08:00 0°C° 0 mm 0 mps 634 mmHg 61%
    09:00 +1°C° 0 mm 0 mps 634 mmHg 64%
    10:00 +3°C° 0 mm 1 mps 634 mmHg 68%
    11:00 +3°C° 0 mm 1 mps 634 mmHg 72%
    12:00 +3°C° 0 mm 1 mps 634 mmHg 76%
    13:00 +3°C° 0 mm 1 mps 634 mmHg 78%
    14:00 +3°C° 0 mm 1 mps 633 mmHg 79%
    15:00 +3°C° 0 mm 1 mps 633 mmHg 81%
    16:00 +2°C° 0 mm 1 mps 632 mmHg 84%
    17:00 0°C° 0 mm 0 mps 632 mmHg 87%
    18:00 -1°C° 0 mm 0 mps 632 mmHg 89%
    19:00 -1°C° 0 mm 0 mps 632 mmHg 88%
    20:00 -2°C° 0 mm 0 mps 632 mmHg 87%
    21:00 -2°C° 0 mm 0 mps 632 mmHg 86%
    22:00 -2°C° 0 mm 0 mps 632 mmHg 84%
    23:00 -1°C° 0 mm 1 mps 632 mmHg 83%

    21 February, Friday

    Time Temperature Precipitation Wind Pressure Humidity
    00:00 -1°C° 0 mm 1 mps 632 mmHg 81%
    01:00 -1°C° 0 mm 1 mps 632 mmHg 80%
    02:00 -1°C° 0 mm 1 mps 631 mmHg 80%
    03:00 -1°C° 0 mm 1 mps 631 mmHg 79%
    04:00 -2°C° 0 mm 1 mps 631 mmHg 79%
    05:00 -2°C° 0 mm 1 mps 631 mmHg 79%
    06:00 -2°C° 0 mm 1 mps 631 mmHg 79%
    07:00 -1°C° 0 mm 1 mps 632 mmHg 79%
    08:00 0°C° 0 mm 1 mps 633 mmHg 79%
    09:00 0°C° 0 mm 0 mps 633 mmHg 80%
    16:00 +1°C° 0 mm 1 mps 633 mmHg 89%
    17:00 0°C° 0 mm 1 mps 633 mmHg 89%
    18:00 0°C° 0 mm 1 mps 634 mmHg 89%
    19:00 -1°C° 0 mm 1 mps 634 mmHg 86%
    20:00 -1°C° 0 mm 1 mps 634 mmHg 83%
    21:00 -1°C° 0 mm 1 mps 634 mmHg 80%
    22:00 -1°C° 0 mm 1 mps 634 mmHg 79%
    23:00 -2°C° 0 mm 1 mps 635 mmHg 77%

    22 February, Saturday

    Time Temperature Precipitation Wind Pressure Humidity
    00:00 -2°C° 0 mm 1 mps 635 mmHg 76%
    01:00 -2°C° 0 mm 1 mps 635 mmHg 75%
    02:00 -2°C° 0 mm 1 mps 635 mmHg 74%
    03:00 -2°C° 0 mm 1 mps 635 mmHg 73%
    04:00 -2°C° 0 mm 1 mps 635 mmHg 72%
    05:00 -2°C° 0 mm 1 mps 635 mmHg 71%
    06:00 -2°C° 0 mm 1 mps 635 mmHg 70%
    07:00 -1°C° 0 mm 1 mps 636 mmHg 70%
    08:00 0°C° 0 mm 1 mps 636 mmHg 70%
    09:00 +2°C° 0 mm 1 mps 637 mmHg 71%
    10:00 +2°C° 0 mm 1 mps 637 mmHg 73%
    11:00 +3°C° 0 mm 1 mps 637 mmHg 75%
    12:00 +3°C° 0 mm 1 mps 637 mmHg 78%
    13:00 +3°C° 0 mm 1 mps 637 mmHg 80%
    14:00 +3°C° 0 mm 1 mps 637 mmHg 82%
    15:00 +3°C° 0 mm 1 mps 636 mmHg 85%
    16:00 +2°C° 0 mm 1 mps 636 mmHg 87%
    17:00 +1°C° 0 mm 1 mps 636 mmHg 88%
    18:00 -1°C° 0 mm 0 mps 636 mmHg 90%
    19:00 -1°C° 0 mm 0 mps 636 mmHg 90%
    20:00 -1°C° 0 mm 0 mps 636 mmHg 90%
    21:00 -1°C° 0 mm 0 mps 636 mmHg 90%
    22:00 -2°C° 0 mm 0 mps 636 mmHg 90%
    23:00 -2°C° 0 mm 0 mps 636 mmHg 90%
    Show more